STARLINK-3068, 49154

Orbit data source: Space-Track

STARLINK-3068, 49154 is a payload satellite owned by SpaceX/Seattle (US) in LEO that was launched on Tue, 14 Sep 2021 UTC via an FALCON 9 launch vehicle from the Air Force Western Test Range (AFWTR). Payload-class satellites include a variety of spacecraft equipped with specific instruments for various scientific and technological missions. These include communications satellites like Starlink; space stations such as the ISS; scientific satellites like the Hubble; Earth observation satellites from companies like Planet Labs, Umbra, and HawkEye 360; GPS; miniature CubeSats for education and research; and military/defense satellites.

Loading next visibility...
Identifier
49154, 2021-082AA
Orbit
LEO
Last TLE update
10 hours ago
Origin
Manufacturer
SpaceX/Seattle
Mission
Operational Commercial Communications
Bus & Motor
STARLINK, Unknown motor
Mass
297 kg wet, ~275 kg dry
Launch date (UTC)
2021-09-14 (4 years ago)
Launch vehicle
FALCON 9
Launch site
Air Force Western Test Range (AFWTR)
Object type
Payload
Rocket body
Debris
Shape & HBR
Box + 1 Pan, 8.86 m
Radar Cross Section
13.562 m², Large (>1 m²)

Expand to show TLE details & history

TLE from 10 hours ago
0 STARLINK-3068
1 49154U 21082AA  25128.96698409 -.00000487  00000-0 -33026-4 0  9994
2 49154  69.9991 322.7574 0002781 264.5201  95.5641 14.98327992201902
Epoch: 2025-05-08T23:12Z
Definitive object data (Epoch: 2025-05-08T23:12:27.425Z)
Latitude
-0.00001°
Longitude
107.61324°
Altitude
574.674 km
Speed
7.574 km/s
True Right ascension
21h 31m 01s
True Declination
0° 00' 00"
Sunlit
Object was in daylight at TLE epoch
Visualization TLE readout
Latitude
-18.38256°
Longitude
99.70345°
Altitude
578.189 km
Speed
7.571 km/s
Apparent Right ascension
00h 00m 24s
Apparent Declination
-45° 52' 39"
Sunlit
Object is in daylight
Visualization observer readout
Local Sidereal Time
16:53:16
Azimuth
122.313° SE
Elevation
-37.939°
Doppler factor
1
Orbital elements
Apogee altitude
571.943 km
Perigee altitude
568.078 km
Semi-major axis
6,948.147 km
Eccentricity
0.0002781
Inclination
69.9991°
RAAN
322.7574°
Arg. of periapsis
264.5201°
True anomaly
95.59582°
Mean anomaly
95.5641°
Eccentric anomaly
95.57996°
Mean motion
3.74748 °/min
BSTAR
-0.000033026
Orbital period
96.06 mins
Loading maneuver chart data...
Loading SW <> Apogee altitude chart data...
Loading historical data...
Loading historical data...
Loading historical data...
Loading historical data...
Loading historical data...
Loading historical data...
Loading historical data...

STARLINK-3068 Visibility forecast

Observer location: undefined°, undefined°

Span
Click to sort rows by Start time (UTC) header in descending order
Start Az.
Max El. time (UTC)
Max El. Az.
Max El.
End time (UTC)
End Az.
7 mins2025-05-09 13:45:03.406Z170.232° S2025-05-09 13:48:03.406Z120.65° SE28.559°2025-05-09 13:52:03.406Z44.258° NE
4 mins2025-05-09 15:25:03.406Z271.566° WNW2025-05-09 15:27:03.406Z309.194° NW19.479°2025-05-09 15:29:03.406Z343.78° N
6 mins2025-05-09 23:48:03.406Z341.439° N2025-05-09 23:51:03.406Z93.065° ESE43.742°2025-05-09 23:54:03.406Z149.429° SSE
|